Regional Weather Roundup
Issued by NWS

Home | Current Version | Previous Version | Graphics & Text | Print | Product List | Glossary On
Versions: 1 2 3 4 5 6 7 8 9 10 11 12 13 14 15 16 17 18 19 20 21 22 23 24 25 26 27 28 29 30 31 32 33 34 35 36 37 38 39 40 41 42 43 44 45 46 47 48 49 50
000
ASUS43 KDTX 070710
RWRMI
MICHIGAN HOURLY REGIONAL WEATHER ROUNDUP
NATIONAL WEATHER SERVICE DETROIT/PONTIAC MI
300 AM EDT TUE JUL 07 2015

NOTE: "FAIR" INDICATES FEW OR NO CLOUDS BELOW 12,000 FEET WITH NO
SIGNIFICANT WEATHER AND/OR OBSTRUCTION TO VISIBILITY.

MIZ047>049-052>055-059>063-066>070-074>076-081>083-070800-
SOUTHEAST LOWER MICHIGAN

CITY           SKY/WX    TMP DP  RH WIND       PRES   REMARKS
ADRIAN         CLOUDY    72  66  81 SW8       29.90F
ALMA           CLOUDY    71  70  96 W3        29.83F FOG
ANN ARBOR      CLOUDY    71  66  84 S6        29.89F
BAD AXE        CLOUDY    72  62  70 S12       29.84F
CARO           CLOUDY    74  65  74 S8        29.83F
DETROIT CITY   CLOUDY    75  65  70 SW9       29.89F
DETROIT        CLOUDY    74  65  73 S8        29.90F
FLINT          CLOUDY    78  65  63 S10       29.85F
GROSSE ILE     MOCLDY    73  68  83 S9        29.89F
HILLSDALE      CLOUDY    73  70  89 S6        29.90F
HOWELL         CLOUDY    73  66  78 S6        29.87F

CITY           SKY/WX    TMP DP  RH WIND       PRES   REMARKS
JACKSON        CLOUDY    75  67  76 S9        29.87F
LAMBERTVILLE   CLOUDY    75  66  72 S6        29.91F
LANSING        CLOUDY    75  67  76 S9        29.84F
LAPEER         FAIR      74  63  67 SW8       29.86F
MASON          CLOUDY    72  65  80 S5        29.86F
MONROE         CLOUDY    73  66  80 S7        29.89F
MT. CLEMENS    CLOUDY    72  66  82 S8        29.87F
PONTIAC        CLOUDY    73  65  75 S8        29.88F
PORT HOPE        N/A     74  63  68 VRB7      29.81F
PORT HURON     CLOUDY    68  64  88 S5        29.89S
TRI CITIES     CLOUDY    76  66  71 SW6       29.83F
MIDLAND        LGT RAIN  72  69  89 S7        29.81F
TROY           CLOUDY    76  64  67 S8        29.90F
SAGINAW HB     CLOUDY    77  64  65 S10       29.81F
$$
MIZ043>046-050>051-056>058-064>065-071>073-077>080-070800-
SOUTHWEST LOWER MICHIGAN

CITY           SKY/WX    TMP DP  RH WIND       PRES   REMARKS
BATTLE CREEK   CLOUDY    76  68  76 S13       29.86F
BENTON HARBOR  RAIN      71  69  93 SW6       29.86S FOG
BIG RAPIDS     LGT RAIN  69  67  92 SW5       29.82F
COLDWATER      CLOUDY    75  67  78 SW7       29.88F
FREMONT        CLOUDY    69  69  98 SW8       29.81F
HOLLAND        CLOUDY    72  66  81 SW9       29.84F
GRAND RAPIDS   CLOUDY    73  70  90 SW13G21   29.84S
IONIA          LGT RAIN  73  71  95 NW3       29.84S
KALAMAZOO      CLOUDY    77  70  79 S10       29.86F
LUDINGTON      CLOUDY    60  58  91 N13       29.84R FOG
MARSHALL       CLOUDY    75  68  78 S6        29.87S
MOUNT PLEASANT LGT RAIN  71  69  93 SW6       29.81F
MUSKEGON       CLOUDY    69  66  90 S6        29.82F
SOUTH HAVEN    CLOUDY    72  66  83 SW7       29.85S
$$
MIZ016>042-070800-
NORTHERN LOWER MICHIGAN

CITY           SKY/WX    TMP DP  RH WIND       PRES   REMARKS
ALPENA         LGT RAIN  71  68  90 SW5       29.77F FOG
BEAVER ISLAND  CLOUDY    57  55  94 NW5       29.85R
BELLAIRE       CLOUDY    60  58  92 N9        29.83R
CADILLAC       DRIZZLE   70  69  96 SW9       29.81S
CHARLEVOIX     CLOUDY    59  58  96 N7G18     29.87S FOG
FRANKFORT      LGT RAIN  60  54  81 N12G20    29.86R
GAYLORD        LGT RAIN  61  61 100 NW10G18   29.82R FOG
GRAYLING       CLOUDY    70  69  95 SW8       29.80F
HARBOR SPRINGS CLOUDY    58  57  94 W8G17     29.82R
HOUGHTON LAKE  LGT RAIN  71  68  90 SW14      29.81F
MANISTEE       CLOUDY   N/A N/A N/A N12       29.85R
OSCODA         LGT RAIN  72  67  84 SW8       29.79F
PELLSTON       LGT RAIN  59  57  93 NW14      29.82R FOG
ROGERS CITY    CLOUDY    67  66  97 CALM      29.77S FOG
TRAVERSE CITY  CLOUDY    60  56  86 N9        29.83R FOG
$$
MIZ007>008-015-070800-
EASTERN UPPER MICHIGAN

CITY           SKY/WX    TMP DP  RH WIND       PRES   REMARKS
KINROSS        CLOUDY    57  57 100 NW15G21   29.79S
MACKINAC ISLAN CLOUDY    58  58 100 NW12G18   29.80S
NEWBERRY       CLOUDY    52  52  99 NW8       29.84R
S. S. MARIE    RAIN      55  53  93 NW15G23   29.78R FOG
MUNISING         N/A     50  45  83 NW13      29.89S
$$
MIZ004>006-011>014-085-070800-
CENTRAL UPPER MICHIGAN

CITY           SKY/WX    TMP DP  RH WIND       PRES   REMARKS
MANISTIQUE     CLOUDY    52  49  91 N12G17    29.86R
ESCANABA       CLOUDY    55  52  88 N8        29.89S
MENOMINEE      CLOUDY    57  54  88 N9        29.90R
SAWYER-GWINN   PTCLDY    51  46  83 N14G20    29.92S
$$
MIZ001>003-009>011-084-070800-
WESTERN UPPER MICHIGAN

CITY           SKY/WX    TMP DP  RH WIND       PRES   REMARKS
IRON MOUNTAIN  CLOUDY    56  52  86 N8        29.92R FOG
HOUGHTON       MOCLDY    50  47  89 NW8       29.96S
COPPER HARBOR    N/A     51  43  74 NE16      29.92F
IRONWOOD       CLOUDY    52  48  87 N6        29.99S
$$

ABBREVIATIONS USED IN REMARKS
   TC - TEMPERATURE IN CELSIUS
  WCI - WIND CHILL INDEX
   HX - HEAT INDEX
  VSB - VISIBILITY




USA.gov is the U.S. government's official web portal to all federal, state and local government web resources and services.